KVIHKSET

Guest
Details From KVIH - ROLLA NATIONAL
To KSET - St Charles Co Smartt
Flight Number -
Tags generated
Created
Modified
Stats Distance 79 nm / 147 km
Max Altitude 1,200 ft / 366 m
Waypoints 3
Social Downloads 1
Likes 0
Share VATSIM

Download

Looking for another format? Having issues loading an existing format? Contact us
Advertisement - Login to hide

Notes

Basic altitude profile: - Ascent Rate: 500ft/min - Ascent Speed: 75kts - Cruise Altitude: 4500ft - Cruise Speed: 115kts - Descent Rate: 500ft/min - Descent Speed: 115kts Options: - Use NATs: yes - Use PACOTS: yes - Use low airways: yes - Use high airways: yes

Route

KVIH VIH KSET

ID Type Via Altitude Latitude Longitude Leg Dist Tot Dist Heading (true) Name
O KVIH APT - 0 ft / 0 m 38.12743˚ -91.76952˚ - 0 nm - ROLLA NATIONAL
VIH VOR - 1,200 ft / 366 m 38.15408˚ -91.70678˚ 3 nm 3 nm 62° / 62° VICHY VOR-DME
O KSET APT - 0 ft / 0 m 38.93032˚ -90.42954˚ 75 nm 79 nm 52° / 53° St Charles Co Smartt

Altitude Profile

Advertisement - Login to hide

KVIH

Details ICAO KVIH
Name ROLLA NATIONAL
Region United States
Timezone America/Chicago (UTC-5.0)
Stats Elevation 1,148 ft / 350 m (AMSL)
Location 38.127434° -91.769516°
Runways 3
Magnetic Variation 0.361° W

METAR

KVIH 210653Z AUTO 13008KT 10SM BKN003 17/17 A3006 RMK AO2 RAE06 SLP171 P0000 T01720167 $

Decode

TAF

Not found

Departure Runways

ID Width Length Bearing (true) Bearing (mag) Surface Threshold Offset Overrun Length
04 100 ft / 30 m 5,499 ft / 1,676 m 46.44° 46.80° Asphalt 213 ft / 65 m 0 ft / 0 m
13 100 ft / 30 m 5,500 ft / 1,676 m 136.65° 137.01° Asphalt 0 ft / 0 m 0 ft / 0 m
18 75 ft / 23 m 5,005 ft / 1,525 m 180.88° 181.24° Asphalt 0 ft / 0 m 0 ft / 0 m
22 100 ft / 30 m 5,499 ft / 1,676 m 226.45° 226.81° Asphalt 0 ft / 0 m 0 ft / 0 m
31 100 ft / 30 m 5,500 ft / 1,676 m 316.66° 317.02° Asphalt 0 ft / 0 m 0 ft / 0 m
36 75 ft / 23 m 5,005 ft / 1,525 m 0.88° 1.24° Asphalt 0 ft / 0 m 0 ft / 0 m

KSET

Details ICAO KSET
Name St Charles Co Smartt
Region United States
Timezone America/Chicago (UTC-5.0)
Stats Elevation 436 ft / 133 m (AMSL)
Location 38.930320° -90.429536°
Runways 2
Magnetic Variation 1.428° W

METAR

KSET 210654Z AUTO 26003KT 9SM -RA FEW070 BKN120 20/18 A3006 RMK AO2 TSE07 SLP176 P0018 T02000183 $

Decode

TAF

Not found

Destination Runways

ID Width Length Bearing (true) Bearing (mag) Surface Threshold Offset Overrun Length
09 75 ft / 23 m 1,996 ft / 608 m 90.72° 92.15° Asphalt 0 ft / 0 m 0 ft / 0 m
18 75 ft / 23 m 3,807 ft / 1,161 m 180.69° 182.12° Asphalt 0 ft / 0 m 0 ft / 0 m
27 75 ft / 23 m 1,996 ft / 608 m 270.73° 272.16° Asphalt 0 ft / 0 m 0 ft / 0 m
36 75 ft / 23 m 3,807 ft / 1,161 m 0.69° 2.12° Asphalt 0 ft / 0 m 0 ft / 0 m